Home > Products > Valid Products > MTR

000
SAGM31 PGUM 131854
MTRGUM
METAR PGUM 131854Z 07013KT 10SM CLR 25/21 A2996 RMK AO2 SLP138
T02500206 $





000
SAGM31 PGUM 131754
MTRGUM
METAR PGUM 131754Z 07013KT 10SM CLR 25/19 A2996 RMK AO2 SLP137 60000
T02500194 10261 20250 56016 $





000
SAGM31 PGUM 131754
MTRGUM
METAR PGUM 131754Z 07013KT 10SM CLR 25/19 A2996 RMK AO2 SLP137 60000
T02500194 10261 20250 56016 $




000
SAGM31 PGUM 131754
MTRGUM
METAR PGUM 131754Z 07013KT 10SM CLR 25/19 A2996 RMK AO2 SLP137 60000
T02500194 10261 20250 56016 $





000
SAGM31 PGUM 131655
MTRGUM
METAR PGUM 131654Z 08014KT 10SM CLR 25/19 A2997 RMK AO2 SLP139
T02500194 $





000
SAGM31 PGUM 131557
MTRGUM
METAR PGUM 131554Z COR 07012KT 10SM CLR 26/19 A2999 RMK AO2 SLP147
T02560194 $





000
SAGM31 PGUM 131554
MTRGUM
METAR PGUM 131554Z 07012KT CLR 26/19 A2999 RMK AO2 SLP147 T02560194
$




000
SAGM31 PGUM 131554
MTRGUM
METAR PGUM 131554Z 07012KT CLR 26/19 A2999 RMK AO2 SLP147 T02560194
$





000
SAGM31 PGUM 131554
MTRGUM
METAR PGUM 131554Z 07012KT CLR 26/19 A2999 RMK AO2 SLP147 T02560194
$





000
SAGM31 PGUM 131455
MTRGUM
METAR PGUM 131454Z 07012KT 10SM CLR 26/19 A3001 RMK AO2 RAB09E19
SLP153 P0000 60000 T02560194 56005 $





000
SAGM31 PGUM 131455
MTRGUM
METAR PGUM 131454Z 07012KT 10SM CLR 26/19 A3001 RMK AO2 RAB09E19
SLP153 P0000 60000 T02560194 56005 $





000
SAGM31 PGUM 131354
MTRGUM
METAR PGUM 131354Z 07013G19KT 10SM FEW028 SCT035 BKN050 26/20 A3001
RMK AO2 SLP155 T02560200 403060244 $





000
SAGM31 PGUM 131254
MTRGUM
METAR PGUM 131254Z 07015G21KT 10SM FEW037 26/19 A3001 RMK AO2 SLP156
T02560194 $





000
SAGM31 PGUM 131254
MTRGUM
METAR PGUM 131254Z 07015G21KT 10SM FEW037 26/19 A3001 RMK AO2 SLP156
T02560194 $




000
SAGM31 PGUM 131254
MTRGUM
METAR PGUM 131254Z 07015G21KT 10SM FEW037 26/19 A3001 RMK AO2 SLP156
T02560194 $





000
SAGM31 PGUM 131157
MTRGUM
METAR PGUM 131154Z COR 07015KT 10SM FEW026 26/21 A3002 RMK AO2
SLP158 70001 T02610206 10289 20261 51010 $





000
SAGM31 PGUM 131157
MTRGUM
METAR PGUM 131154Z COR 07015KT 10SM FEW026 26/21 A3002 RMK AO2
SLP158 70001 T02610206 10289 20261 51010 $





000
SAGM31 PGUM 131157
MTRGUM
METAR PGUM 131154Z COR 07015KT 10SM FEW026 26/21 A3002 RMK AO2
SLP158 70001 T02610206 10289 20261 51010 $




000
SAGM31 PGUM 131155
MTRGUM
METAR PGUM 131154Z 07015KT 10SM CLR 26/21 A3002 RMK AO2 SLP158 70001
T02610206 10289 20261 51010 $




000
SAGM31 PGUM 131155
MTRGUM
METAR PGUM 131154Z 07015KT 10SM CLR 26/21 A3002 RMK AO2 SLP158 70001
T02610206 10289 20261 51010 $





000
SAGM31 PGUM 131155
MTRGUM
METAR PGUM 131154Z 07015KT 10SM CLR 26/21 A3002 RMK AO2 SLP158 70001
T02610206 10289 20261 51010 $





000
SAGM31 PGUM 131055
MTRGUM
METAR PGUM 131054Z 07013KT 10SM FEW026 26/21 A3002 RMK AO2 SLP157
T02610206 $





000
SAGM31 PGUM 130955
MTRGUM
METAR PGUM 130954Z 06012KT 10SM CLR 26/21 A3001 RMK AO2 SLP154
T02610206 $





000
SAGM31 PGUM 130955
MTRGUM
METAR PGUM 130954Z 06012KT 10SM CLR 26/21 A3001 RMK AO2 SLP154
T02610206 $




000
SAGM31 PGUM 130955
MTRGUM
METAR PGUM 130954Z 06012KT 10SM CLR 26/21 A3001 RMK AO2 SLP154
T02610206 $





000
SAGM31 PGUM 130854
MTRGUM
METAR PGUM 130854Z 06014KT 10SM FEW025 SCT050 26/21 A2999 RMK AO2
SLP149 T02610206 51017 $





000
SAGM31 PGUM 130854
MTRGUM
METAR PGUM 130854Z 06014KT 10SM FEW025 SCT050 26/21 A2999 RMK AO2
SLP149 T02610206 51017 $





000
SAGM31 PGUM 130854
MTRGUM
METAR PGUM 130854Z 06014KT 10SM FEW025 SCT050 26/21 A2999 RMK AO2
SLP149 T02610206 51017 $




000
SAGM31 PGUM 130754
MTRGUM
METAR PGUM 130754Z 06016G22KT 10SM FEW028 27/20 A2997 RMK AO2 PK WND
06027/0708 SLP143 T02670200 $




000
SAGM31 PGUM 130754
MTRGUM
METAR PGUM 130754Z 06016G22KT 10SM FEW028 27/20 A2997 RMK AO2 PK WND
06027/0708 SLP143 T02670200 $





000
SAGM31 PGUM 130754
MTRGUM
METAR PGUM 130754Z 06016G22KT 10SM FEW028 27/20 A2997 RMK AO2 PK WND
06027/0708 SLP143 T02670200 $





000
SAGM31 PGUM 130701
MTRGUM
METAR PGUM 130654Z COR 06019G25KT 10SM SCT030 28/20 A2996 RMK AO2 PK
WND 06028/0641 SLP138 T02780200 $




000
SAGM31 PGUM 130701
MTRGUM
METAR PGUM 130654Z COR 06019G25KT 10SM SCT030 28/20 A2996 RMK AO2 PK
WND 06028/0641 SLP138 T02780200 $





000
SAGM31 PGUM 130701
MTRGUM
METAR PGUM 130654Z COR 06019G25KT 10SM SCT030 28/20 A2996 RMK AO2 PK
WND 06028/0641 SLP138 T02780200 $





000
SAGM31 PGUM 130654
MTRGUM
METAR PGUM 130654Z 06019G25KT 10SM SCT030 28/20 A2996 RMK AO2 PK WND
06028/0641 SLP138 T02780200 $





000
SAGM31 PGUM 130654
MTRGUM
METAR PGUM 130654Z 06019G25KT 10SM SCT030 28/20 A2996 RMK AO2 PK WND
06028/0641 SLP138 T02780200 $




000
SAGM31 PGUM 130654
MTRGUM
METAR PGUM 130654Z 06019G25KT 10SM SCT030 28/20 A2996 RMK AO2 PK WND
06028/0641 SLP138 T02780200 $





000
SAGM31 PGUM 130554
MTRGUM
METAR PGUM 130554Z 06019G26KT 10SM SCT030 SCT039 28/20 A2994 RMK AO2
PK WND 06026/0552 SLP130 T02830200 10306 20272 56016 $





000
SAGM31 PGUM 130554
MTRGUM
METAR PGUM 130554Z 06019G26KT 10SM SCT030 SCT039 28/20 A2994 RMK AO2
PK WND 06026/0552 SLP130 T02830200 10306 20272 56016 $




000
SAGM31 PGUM 130554
MTRGUM
METAR PGUM 130554Z 06019G26KT 10SM SCT030 SCT039 28/20 A2994 RMK AO2
PK WND 06026/0552 SLP130 T02830200 10306 20272 56016 $





000
SAGM31 PGUM 130454
MTRGUM
METAR PGUM 130454Z 06016G26KT 10SM SCT030 SCT038 29/20 A2994 RMK AO2
PK WND 08026/0446 SLP131 T02890200 $





000
SAGM31 PGUM 130354
MTRGUM
METAR PGUM 130354Z 06021G26KT 10SM BKN031 30/20 A2996 RMK AO2 PK WND
04028/0336 SLP137 T03000200 $





000
SAGM31 PGUM 130354
MTRGUM
METAR PGUM 130354Z 06021G26KT 10SM BKN031 30/20 A2996 RMK AO2 PK WND
04028/0336 SLP137 T03000200 $





000
SAGM31 PGUM 130305
MTRGUM
SPECI PGUM 130304Z 07019G27KT 10SM SCT028 SCT036 29/19 A2998 RMK AO2
PK WND 08027/0301 $





000
SAGM31 PGUM 130254
MTRGUM
METAR PGUM 130254Z 06021G29KT 10SM BKN028 BKN039 29/21 A2999 RMK AO2
PK WND 06029/0251 SLP146 T02890206 58018 $





000
SAGM31 PGUM 130254
MTRGUM
METAR PGUM 130254Z 06021G29KT 10SM BKN028 BKN039 29/21 A2999 RMK AO2
PK WND 06029/0251 SLP146 T02890206 58018 $




000
SAGM31 PGUM 130254
MTRGUM
METAR PGUM 130254Z 06021G29KT 10SM BKN028 BKN039 29/21 A2999 RMK AO2
PK WND 06029/0251 SLP146 T02890206 58018 $





000
SAGM31 PGUM 130154
MTRGUM
METAR PGUM 130154Z 06018G26KT 10SM FEW025 SCT030 BKN036 29/21 A3000
RMK AO2 PK WND 06028/0129 SLP152 T02890206 $





000
SAGM31 PGUM 130143
MTRGUM
SPECI PGUM 130142Z 05022KT 10SM FEW025 BKN030 BKN035 28/20 A3001 RMK
AO2 PK WND 06028/0129 $





000
SAGM31 PGUM 130111
MTRGUM
SPECI PGUM 130110Z 06017G25KT 10SM BKN027 BKN037 OVC055 28/21 A3002
RMK AO2 $




000
SAGM31 PGUM 130111
MTRGUM
SPECI PGUM 130110Z 06017G25KT 10SM BKN027 BKN037 OVC055 28/21 A3002
RMK AO2 $





000
SAGM31 PGUM 130111
MTRGUM
SPECI PGUM 130110Z 06017G25KT 10SM BKN027 BKN037 OVC055 28/21 A3002
RMK AO2 $





000
SAGM31 PGUM 130055
MTRGUM
METAR PGUM 130054Z 07017G23KT 10SM SCT025 BKN033 BKN043 29/21 A3003
RMK AO2 PK WND 05028/0031 SLP161 T02890206 $





000
SAGM31 PGUM 130055
MTRGUM
METAR PGUM 130054Z 07017G23KT 10SM SCT025 BKN033 BKN043 29/21 A3003
RMK AO2 PK WND 05028/0031 SLP161 T02890206 $





000
SAGM31 PGUM 130055
MTRGUM
METAR PGUM 130054Z 07017G23KT 10SM SCT025 BKN033 BKN043 29/21 A3003
RMK AO2 PK WND 05028/0031 SLP161 T02890206 $




000
SAGM31 PGUM 122354
MTRGUM
METAR PGUM 122354Z 07019G27KT 10SM FEW028 SCT075 28/21 A3004 RMK AO2
PK WND 06029/2305 SLP164 T02830206 10283 20250 51016 $




000
SAGM31 PGUM 122354
MTRGUM
METAR PGUM 122354Z 07019G27KT 10SM FEW028 SCT075 28/21 A3004 RMK AO2
PK WND 06029/2305 SLP164 T02830206 10283 20250 51016 $





000
SAGM31 PGUM 122354
MTRGUM
METAR PGUM 122354Z 07019G27KT 10SM FEW028 SCT075 28/21 A3004 RMK AO2
PK WND 06029/2305 SLP164 T02830206 10283 20250 51016 $





000
SAGM31 PGUM 122255
MTRGUM
METAR PGUM 122254Z 06019G26KT 10SM SCT027 SCT039 BKN046 27/21 A3003
RMK AO2 PK WND 05028/2235 SLP162 T02670206 $





000
SAGM31 PGUM 122255
MTRGUM
METAR PGUM 122254Z 06019G26KT 10SM SCT027 SCT039 BKN046 27/21 A3003
RMK AO2 PK WND 05028/2235 SLP162 T02670206 $





000
SAGM31 PGUM 122255
MTRGUM
METAR PGUM 122254Z 06019G26KT 10SM SCT027 SCT039 BKN046 27/21 A3003
RMK AO2 PK WND 05028/2235 SLP162 T02670206 $




000
SAGM31 PGUM 122155
MTRGUM
METAR PGUM 122154Z AUTO 05017KT 10SM FEW041 BKN065 26/21 A3001 RMK
AO2 SLP156 T02610206 TSNO $





000
SAGM31 PGUM 122155
MTRGUM
METAR PGUM 122154Z AUTO 05017KT 10SM FEW041 BKN065 26/21 A3001 RMK
AO2 SLP156 T02610206 TSNO $





000
SAGM31 PGUM 122054
MTRGUM
METAR PGUM 122054Z 06013KT 10SM FEW025 BKN037 BKN070 25/21 A2999 RMK
AO2 SLP149 T02500206 53016 $





000
SAGM31 PGUM 121955
MTRGUM
METAR PGUM 121954Z 06016G21KT 10SM FEW022 SCT036 SCT070 25/21 A2997
RMK AO2 SLP142 T02500211 $





000
SAGM31 PGUM 121854
MTRGUM
METAR PGUM 121854Z 05016G24KT 10SM FEW020 SCT031 25/21 A2995 RMK AO2
SLP134 T02500211 $





000
SAGM31 PGUM 121754
MTRGUM
METAR PGUM 121754Z 05017KT 10SM CLR 25/21 A2994 RMK AO2 SLP132 60001
T02500206 10256 20244 57014 $





000
SAGM31 PGUM 121754
MTRGUM
METAR PGUM 121754Z 05017KT 10SM CLR 25/21 A2994 RMK AO2 SLP132 60001
T02500206 10256 20244 57014 $




000
SAGM31 PGUM 121754
MTRGUM
METAR PGUM 121754Z 05017KT 10SM CLR 25/21 A2994 RMK AO2 SLP132 60001
T02500206 10256 20244 57014 $





000
SAGM31 PGUM 121655
MTRGUM
METAR PGUM 121654Z 06012KT 10SM BKN075 25/21 A2996 RMK AO2 SLP137
T02500206 $





000
SAGM31 PGUM 121554
MTRGUM
METAR PGUM 121554Z 05017G24KT 10SM FEW024 SCT030 SCT036 25/21 A2997
RMK AO2 SLP141 T02500211 $





000
SAGM31 PGUM 121455
MTRGUM
METAR PGUM 121454Z 06016KT 10SM SCT034 BKN043 BKN070 25/22 A2999 RMK
AO2 SLP146 60001 T02500217 58004 $





000
SAGM31 PGUM 121355
MTRGUM
METAR PGUM 121354Z 06012KT 10SM FEW029 SCT070 24/22 A2999 RMK AO2 PK
WND 06026/1339 RAB41E51 SLP148 P0001 T02440217 403060228 $





000
SAGM31 PGUM 121254
MTRGUM
METAR PGUM 121254Z 05011KT 10SM FEW022 BKN065 26/21 A3000 RMK AO2
RAE00 SLP150 P0000 T02560211 $





000
SAGM31 PGUM 121154
MTRGUM
METAR PGUM 121154Z 06016G22KT 7SM -RA FEW036 SCT045 BKN065 26/21
A3000 RMK AO2 RAB11E21B53 SLP151 P0000 60000 70009 T02560211 10283
20250 52013 $




000
SAGM31 PGUM 121154
MTRGUM
METAR PGUM 121154Z 06016G22KT 7SM -RA FEW036 SCT045 BKN065 26/21
A3000 RMK AO2 RAB11E21B53 SLP151 P0000 60000 70009 T02560211 10283
20250 52013 $





000
SAGM31 PGUM 121154
MTRGUM
METAR PGUM 121154Z 06016G22KT 7SM -RA FEW036 SCT045 BKN065 26/21
A3000 RMK AO2 RAB11E21B53 SLP151 P0000 60000 70009 T02560211 10283
20250 52013 $





000
SAGM31 PGUM 121055
MTRGUM
METAR PGUM 121054Z 05013KT 7SM FEW025 SCT042 BKN060 25/22 A2999 RMK
AO2 PK WND 05026/1038 RAB40E49 SLP148 P0000 T02500217 $





000
SAGM31 PGUM 121055
MTRGUM
METAR PGUM 121054Z 05013KT 7SM FEW025 SCT042 BKN060 25/22 A2999 RMK
AO2 PK WND 05026/1038 RAB40E49 SLP148 P0000 T02500217 $




000
SAGM31 PGUM 121055
MTRGUM
METAR PGUM 121054Z 05013KT 7SM FEW025 SCT042 BKN060 25/22 A2999 RMK
AO2 PK WND 05026/1038 RAB40E49 SLP148 P0000 T02500217 $





000
SAGM31 PGUM 120955
MTRGUM
METAR PGUM 120954Z 05016G23KT 10SM FEW029 SCT049 26/21 A2997 RMK AO2
SLP141 T02610211 $





000
SAGM31 PGUM 120855
MTRGUM
METAR PGUM 120854Z 05018G24KT 10SM FEW023 SCT036 BKN047 26/21 A2996
RMK AO2 SLP138 T02610206 53010 $




000
SAGM31 PGUM 120855
MTRGUM
METAR PGUM 120854Z 05018G24KT 10SM FEW023 SCT036 BKN047 26/21 A2996
RMK AO2 SLP138 T02610206 53010 $





000
SAGM31 PGUM 120855
MTRGUM
METAR PGUM 120854Z 05018G24KT 10SM FEW023 SCT036 BKN047 26/21 A2996
RMK AO2 SLP138 T02610206 53010 $





000
SAGM31 PGUM 120755
MTRGUM
METAR PGUM 120754Z 06019G27KT 10SM FEW026 27/21 A2995 RMK AO2 PK WND
06027/0751 SLP133 T02720206 $





000
SAGM31 PGUM 120656
MTRGUM
METAR PGUM 120654Z COR 06019G28KT 10SM FEW029 SCT040 28/20 A2994 RMK
AO2 PK WND 06031/0639 SLP131 T02830200 $




000
SAGM31 PGUM 120656
MTRGUM
METAR PGUM 120654Z COR 06019G28KT 10SM FEW029 SCT040 28/20 A2994 RMK
AO2 PK WND 06031/0639 SLP131 T02830200 $





000
SAGM31 PGUM 120654
MTRGUM
METAR PGUM 120654Z 06019G28KT 10SM FEW029 28/20 A2994 RMK AO2 PK WND
06031/0639 SLP131 T02830200 $





000
SAGM31 PGUM 120654
MTRGUM
METAR PGUM 120654Z 06019G28KT 10SM FEW029 28/20 A2994 RMK AO2 PK WND
06031/0639 SLP131 T02830200 $




000
SAGM31 PGUM 120654
MTRGUM
METAR PGUM 120654Z 06019G28KT 10SM FEW029 28/20 A2994 RMK AO2 PK WND
06031/0639 SLP131 T02830200 $





000
SAGM31 PGUM 120643
MTRGUM
SPECI PGUM 120642Z 06020G31KT 10SM SCT029 BKN042 28/20 A2994 RMK AO2
PK WND 06031/0639 $





000
SAGM31 PGUM 120643
MTRGUM
SPECI PGUM 120642Z 06020G31KT 10SM SCT029 BKN042 28/20 A2994 RMK AO2
PK WND 06031/0639 $




000
SAGM31 PGUM 120643
MTRGUM
SPECI PGUM 120642Z 06020G31KT 10SM SCT029 BKN042 28/20 A2994 RMK AO2
PK WND 06031/0639 $





000
SAGM31 PGUM 120628
MTRGUM
SPECI PGUM 120627Z 06015KT 10SM BKN029 BKN040 28/21 A2994 RMK AO2 PK
WND 04028/0610 $





000
SAGM31 PGUM 120555
MTRGUM
METAR PGUM 120554Z 05023G29KT 10SM BKN032 29/20 A2993 RMK AO2 PK WND
06030/0511 SLP127 T02890200 10306 20267 55008 $





000
SAGM31 PGUM 120555
MTRGUM
METAR PGUM 120554Z 05023G29KT 10SM BKN032 29/20 A2993 RMK AO2 PK WND
06030/0511 SLP127 T02890200 10306 20267 55008 $




000
SAGM31 PGUM 120555
MTRGUM
METAR PGUM 120554Z 05023G29KT 10SM BKN032 29/20 A2993 RMK AO2 PK WND
06030/0511 SLP127 T02890200 10306 20267 55008 $





000
SAGM31 PGUM 120455
MTRGUM
METAR PGUM 120454Z 05023G28KT 10SM FEW027 BKN033 BKN044 29/20 A2992
RMK AO2 PK WND 04029/0436 SLP125 T02940200 $




000
SAGM31 PGUM 120455
MTRGUM
METAR PGUM 120454Z 05023G28KT 10SM FEW027 BKN033 BKN044 29/20 A2992
RMK AO2 PK WND 04029/0436 SLP125 T02940200 $





000
SAGM31 PGUM 120455
MTRGUM
METAR PGUM 120454Z 05023G28KT 10SM FEW027 BKN033 BKN044 29/20 A2992
RMK AO2 PK WND 04029/0436 SLP125 T02940200 $





000
SAGM31 PGUM 120355
MTRGUM
METAR PGUM 120354Z 04022G31KT 10SM SCT031 29/20 A2993 RMK AO2 PK WND
06032/0325 SLP128 T02890200 $




000
SAGM31 PGUM 120355
MTRGUM
METAR PGUM 120354Z 04022G31KT 10SM SCT031 29/20 A2993 RMK AO2 PK WND
06032/0325 SLP128 T02890200 $





000
SAGM31 PGUM 120254
MTRGUM
METAR PGUM 120254Z 06020G28KT 10SM FEW033 30/19 A2995 RMK AO2 PK WND
05032/0225 SLP135 T03000194 58023 $





000
SAGM31 PGUM 120155
MTRGUM
METAR PGUM 120154Z 07020G28KT 10SM FEW028 BKN037 29/21 A2998 RMK AO2
PK WND 06032/0118 SLP143 T02890206 $




000
SAGM31 PGUM 120155
MTRGUM
METAR PGUM 120154Z 07020G28KT 10SM FEW028 BKN037 29/21 A2998 RMK AO2
PK WND 06032/0118 SLP143 T02890206 $





000
SAGM31 PGUM 120155
MTRGUM
METAR PGUM 120154Z 07020G28KT 10SM FEW028 BKN037 29/21 A2998 RMK AO2
PK WND 06032/0118 SLP143 T02890206 $





000
SAGM31 PGUM 120055
MTRGUM
METAR PGUM 120054Z 06020G30KT 10SM SCT027 BKN035 28/21 A3001 RMK AO2
PK WND 07031/0038 SLP153 T02830211 $





000
SAGM31 PGUM 120055
MTRGUM
METAR PGUM 120054Z 06020G30KT 10SM SCT027 BKN035 28/21 A3001 RMK AO2
PK WND 07031/0038 SLP153 T02830211 $





000
SAGM31 PGUM 120055
MTRGUM
METAR PGUM 120054Z 06020G30KT 10SM SCT027 BKN035 28/21 A3001 RMK AO2
PK WND 07031/0038 SLP153 T02830211 $




000
SAGM31 PGUM 120034
MTRGUM
SPECI PGUM 120033Z 05022G30KT 10SM BKN027 28/21 A3001 RMK AO2 PK WND
05030/0025 $





000
SAGM31 PGUM 120034
MTRGUM
SPECI PGUM 120033Z 05022G30KT 10SM BKN027 28/21 A3001 RMK AO2 PK WND
05030/0025 $




000
SAGM31 PGUM 120034
MTRGUM
SPECI PGUM 120033Z 05022G30KT 10SM BKN027 28/21 A3001 RMK AO2 PK WND
05030/0025 $





000
SAGM31 PGUM 112357
MTRGUM
METAR PGUM 112354Z COR 05021G27KT 10SM SCT027 BKN034 27/22 A3002 RMK
AO2 PK WND 06027/2354 RAE22 P0000 60007 SLP159 T02670217 10272 20228
50005 $




000
SAGM31 PGUM 112357
MTRGUM
METAR PGUM 112354Z COR 05021G27KT 10SM SCT027 BKN034 27/22 A3002 RMK
AO2 PK WND 06027/2354 RAE22 P0000 60007 SLP159 T02670217 10272 20228
50005 $





000
SAGM31 PGUM 112357
MTRGUM
METAR PGUM 112354Z COR 05021G27KT 10SM SCT027 BKN034 27/22 A3002 RMK
AO2 PK WND 06027/2354 RAE22 P0000 60007 SLP159 T02670217 10272 20228
50005 $





000
SAGM31 PGUM 112354
MTRGUM
METAR PGUM 112354Z 05021G27KT 10SM SCT027 BKN034 27/22 A3002 RMK AO2
PK WND 06027/2354 RAE22 SLP159 T02670217 10272 20228 50005 $





000
SAGM31 PGUM 112256
MTRGUM
METAR PGUM 112254Z 05015KT 7SM -RA FEW023 BKN040 OVC049 24/22 A3003
RMK AO2 PK WND 07026/2244 RAB14E20B46 SLP162 P0000 T02440217 $





000
SAGM31 PGUM 112256
MTRGUM
METAR PGUM 112254Z 05015KT 7SM -RA FEW023 BKN040 OVC049 24/22 A3003
RMK AO2 PK WND 07026/2244 RAB14E20B46 SLP162 P0000 T02440217 $




000
SAGM31 PGUM 112246
MTRGUM
SPECI PGUM 112246Z 06020G26KT 7SM -RA FEW023 SCT029 BKN035 25/22
A3003 RMK AO2 PK WND 07026/2244 RAB14E20B46 P0000 $





000
SAGM31 PGUM 112205
MTRGUM
METAR PGUM 112154Z COR 06014KT 10SM FEW023 SCT049 SCT060 25/23 A3001
RMK AO2 SLP157 T02500228 $





000
SAGM31 PGUM 112154
MTRGUM
METAR PGUM 112154Z 06014KT FEW023 SCT049 SCT060 25/23 A3001 RMK AO2
SLP157 T02500228 $





000
SAGM31 PGUM 111955
MTRGUM
METAR PGUM 111954Z 07013KT 4SM FEW014 OVC050 23/22 A2999 RMK AO2
RAE50 SLP147 P0002 T02330217 $





000
SAGM31 PGUM 111855
MTRGUM
METAR PGUM 111854Z 07016KT 4SM -RA FEW016 BKN038 OVC050 23/22 A2997
RMK AO2 PK WND 08026/1814 SLP141 P0003 T02330222 $





000
SAGM31 PGUM 111815
MTRGUM
SPECI PGUM 111814Z 07021G26KT 8SM FEW012 BKN037 OVC055 24/22 A2996
RMK AO2 PK WND 08026/1814 RAE13 P0002 $




000
SAGM31 PGUM 111815
MTRGUM
SPECI PGUM 111814Z 07021G26KT 8SM FEW012 BKN037 OVC055 24/22 A2996
RMK AO2 PK WND 08026/1814 RAE13 P0002 $





000
SAGM31 PGUM 111815
MTRGUM
SPECI PGUM 111814Z 07021G26KT 8SM FEW012 BKN037 OVC055 24/22 A2996
RMK AO2 PK WND 08026/1814 RAE13 P0002 $





000
SAGM31 PGUM 111808
MTRGUM
SPECI PGUM 111807Z 07018G23KT 8SM -RA SCT012 BKN027 OVC055 24/22
A2996 RMK AO2 P0002 $





000
SAGM31 PGUM 111754
MTRGUM
METAR PGUM 111754Z 07013G19KT 10SM -RA FEW018 BKN030 OVC070 24/23
A2995 RMK AO2 PK WND 06027/1741 RAB34 SLP136 P0001 60001 T02440228
10261 20244 55000 $




000
SAGM31 PGUM 111754
MTRGUM
METAR PGUM 111754Z 07013G19KT 10SM -RA FEW018 BKN030 OVC070 24/23
A2995 RMK AO2 PK WND 06027/1741 RAB34 SLP136 P0001 60001 T02440228
10261 20244 55000 $





000
SAGM31 PGUM 111754
MTRGUM
METAR PGUM 111754Z 07013G19KT 10SM -RA FEW018 BKN030 OVC070 24/23
A2995 RMK AO2 PK WND 06027/1741 RAB34 SLP136 P0001 60001 T02440228
10261 20244 55000 $





000
SAGM31 PGUM 111655
MTRGUM
METAR PGUM 111654Z 06017KT 10SM FEW020 BKN080 25/22 A2994 RMK AO2
RAB12E20 SLP132 P0000 T02500217 $





000
SAGM31 PGUM 111655
MTRGUM
METAR PGUM 111654Z 06017KT 10SM FEW020 BKN080 25/22 A2994 RMK AO2
RAB12E20 SLP132 P0000 T02500217 $




000
SAGM31 PGUM 111554
MTRGUM
METAR PGUM 111554Z 06017G25KT 10SM BKN080 26/22 A2995 RMK AO2 PK WND
06027/1544 SLP134 T02560217 $




000
SAGM31 PGUM 111554
MTRGUM
METAR PGUM 111554Z 06017G25KT 10SM BKN080 26/22 A2995 RMK AO2 PK WND
06027/1544 SLP134 T02560217 $





000
SAGM31 PGUM 111554
MTRGUM
METAR PGUM 111554Z 06017G25KT 10SM BKN080 26/22 A2995 RMK AO2 PK WND
06027/1544 SLP134 T02560217 $





000
SAGM31 PGUM 111455
MTRGUM
METAR PGUM 111454Z 06020G28KT 10SM OVC075 26/22 A2995 RMK AO2 PK WND
06028/1445 SLP135 60000 T02560222 58005 $




000
SAGM31 PGUM 111455
MTRGUM
METAR PGUM 111454Z 06020G28KT 10SM OVC075 26/22 A2995 RMK AO2 PK WND
06028/1445 SLP135 60000 T02560222 58005 $





000
SAGM31 PGUM 111455
MTRGUM
METAR PGUM 111454Z 06020G28KT 10SM OVC075 26/22 A2995 RMK AO2 PK WND
06028/1445 SLP135 60000 T02560222 58005 $





000
SAGM31 PGUM 111355
MTRGUM
METAR PGUM 111354Z 05019G25KT 10SM FEW028 OVC080 26/22 A2996 RMK AO2
SLP137 T02610222 402940239 $





000
SAGM31 PGUM 111254
MTRGUM
METAR PGUM 111254Z 06013KT 10SM FEW023 OVC070 26/22 A2997 RMK AO2
RAB1157E10 SLP139 P0000 T02560222 $





000
SAGM31 PGUM 111254
MTRGUM
METAR PGUM 111254Z 06013KT 10SM FEW023 OVC070 26/22 A2997 RMK AO2
RAB1157E10 SLP139 P0000 T02560222 $




000
SAGM31 PGUM 111254
MTRGUM
METAR PGUM 111254Z 06013KT 10SM FEW023 OVC070 26/22 A2997 RMK AO2
RAB1157E10 SLP139 P0000 T02560222 $





000
SAGM31 PGUM 111155
MTRGUM
METAR PGUM 111154Z 06016G21KT 10SM SCT025 BKN037 OVC065 26/22 A2997
RMK AO2 PK WND 05029/1130 SLP141 60002 70009 T02560217 10278 20250
51013 $





000
SAGM31 PGUM 111155
MTRGUM
METAR PGUM 111154Z 06016G21KT 10SM SCT025 BKN037 OVC065 26/22 A2997
RMK AO2 PK WND 05029/1130 SLP141 60002 70009 T02560217 10278 20250
51013 $





000
SAGM31 PGUM 111155
MTRGUM
METAR PGUM 111154Z 06016G21KT 10SM SCT025 BKN037 OVC065 26/22 A2997
RMK AO2 PK WND 05029/1130 SLP141 60002 70009 T02560217 10278 20250
51013 $




000
SAGM31 PGUM 111055
MTRGUM
METAR PGUM 111054Z 06014KT 10SM FEW037 BKN060 OVC075 26/22 A2996 RMK
AO2 SLP138 T02560217 $




000
SAGM31 PGUM 111055
MTRGUM
METAR PGUM 111054Z 06014KT 10SM FEW037 BKN060 OVC075 26/22 A2996 RMK
AO2 SLP138 T02560217 $





000
SAGM31 PGUM 111055
MTRGUM
METAR PGUM 111054Z 06014KT 10SM FEW037 BKN060 OVC075 26/22 A2996 RMK
AO2 SLP138 T02560217 $





000
SAGM31 PGUM 110954
MTRGUM
METAR PGUM 110954Z 06010KT 10SM CLR 26/21 A2995 RMK AO2 SLP136
T02560211 $





000
SAGM31 PGUM 110855
MTRGUM
METAR PGUM 110854Z 06014KT 10SM BKN038 OVC048 26/22 A2993 RMK AO2
SLP129 60000 T02560222 51016 $





000
SAGM31 PGUM 110855
MTRGUM
METAR PGUM 110854Z 06014KT 10SM BKN038 OVC048 26/22 A2993 RMK AO2
SLP129 60000 T02560222 51016 $





000
SAGM31 PGUM 110755
MTRGUM
METAR PGUM 110754Z 06013KT 10SM FEW022 SCT027 OVC048 26/23 A2991 RMK
AO2 SLP123 T02610228 $





000
SAGM31 PGUM 110755
MTRGUM
METAR PGUM 110754Z 06013KT 10SM FEW022 SCT027 OVC048 26/23 A2991 RMK
AO2 SLP123 T02610228 $





000
SAGM31 PGUM 110654
MTRGUM
METAR PGUM 110654Z 06015G23KT 6SM FEW013 BKN039 OVC060 25/23 A2990
RMK AO2 PK WND 06031/0619 RAB15E53 SLP119 P0000 T02500233 $




000
SAGM31 PGUM 110654
MTRGUM
METAR PGUM 110654Z 06015G23KT 6SM FEW013 BKN039 OVC060 25/23 A2990
RMK AO2 PK WND 06031/0619 RAB15E53 SLP119 P0000 T02500233 $





000
SAGM31 PGUM 110555
MTRGUM
METAR PGUM 110554Z 05020KT 7SM SCT023 BKN070 28/22 A2989 RMK AO2 PK
WND 05029/0516 SLP113 60007 T02780217 10294 20256 55009 $




000
SAGM31 PGUM 110555
MTRGUM
METAR PGUM 110554Z 05020KT 7SM SCT023 BKN070 28/22 A2989 RMK AO2 PK
WND 05029/0516 SLP113 60007 T02780217 10294 20256 55009 $





000
SAGM31 PGUM 110555
MTRGUM
METAR PGUM 110554Z 05020KT 7SM SCT023 BKN070 28/22 A2989 RMK AO2 PK
WND 05029/0516 SLP113 60007 T02780217 10294 20256 55009 $





000
SAGM31 PGUM 110545
MTRGUM
SPECI PGUM 110544Z 05020G28KT 7SM SCT023 BKN034 BKN060 28/22 A2988
RMK AO2 PK WND 05029/0516 $





000
SAGM31 PGUM 110454
MTRGUM
METAR PGUM 110454Z 05018G24KT 7SM BKN017 BKN022 OVC035 27/23 A2988
RMK AO2 RAB0355E06B26E50 SLP112 P0000 T02720228 $





000
SAGM31 PGUM 110423
MTRGUM
SPECI PGUM 110422Z 05019G25KT 10SM BKN022 BKN032 OVC049 27/23 A2989
RMK AO2 RAB0355E06 P0000 $





000
SAGM31 PGUM 110354
MTRGUM
METAR PGUM 110354Z 05019G27KT 10SM SCT017 BKN036 OVC047 28/23 A2990
RMK AO2 PK WND 04027/0352 RAB30E39 SLP117 P0000 T02780228 $





000
SAGM31 PGUM 110354
MTRGUM
METAR PGUM 110354Z 05019G27KT 10SM SCT017 BKN036 OVC047 28/23 A2990
RMK AO2 PK WND 04027/0352 RAB30E39 SLP117 P0000 T02780228 $




000
SAGM31 PGUM 110354
MTRGUM
METAR PGUM 110354Z 05019G27KT 10SM SCT017 BKN036 OVC047 28/23 A2990
RMK AO2 PK WND 04027/0352 RAB30E39 SLP117 P0000 T02780228 $





000
SAGM31 PGUM 110254
MTRGUM
METAR PGUM 110254Z 06019G24KT 10SM FEW022 BKN036 BKN045 28/23 A2991
RMK AO2 PK WND 07030/0203 RAE28 SLP121 60006 P0006 T02780233 58019 $





000
SAGM31 PGUM 110254
MTRGUM
METAR PGUM 110254Z 06019G24KT 10SM FEW022 BKN036 BKN045 28/23 A2991
RMK AO2 PK WND 07030/0203 RAE28 SLP121 60006 P0006 T02780233 58019 $




000
SAGM31 PGUM 110254
MTRGUM
METAR PGUM 110254Z 06019G24KT 10SM FEW022 BKN036 BKN045 28/23 A2991
RMK AO2 PK WND 07030/0203 RAE28 SLP121 60006 P0006 T02780233 58019 $





000
SAGM31 PGUM 110223
MTRGUM
SPECI PGUM 110222Z 06017KT 3SM -RA FEW011 BKN036 OVC043 27/24 A2993
RMK AO2 PK WND 07030/0203 P0005 $





000
SAGM31 PGUM 110223
MTRGUM
SPECI PGUM 110222Z 06017KT 3SM -RA FEW011 BKN036 OVC043 27/24 A2993
RMK AO2 PK WND 07030/0203 P0005 $





000
SAGM31 PGUM 110210
MTRGUM
SPECI PGUM 110209Z 06020G30KT 3SM -RA BR SCT014 BKN026 OVC035 26/24
A2994 RMK AO2 PK WND 07030/0203 P0005 $





000
SAGM31 PGUM 110202
MTRGUM
SPECI PGUM 110201Z 08015G25KT 2 1/2SM +RA BR FEW016 BKN035 OVC070
26/23 A2994 RMK AO2 P0004 $





000
SAGM31 PGUM 110202
MTRGUM
SPECI PGUM 110201Z 08015G25KT 2 1/2SM +RA BR FEW016 BKN035 OVC070
26/23 A2994 RMK AO2 P0004 $




000
SAGM31 PGUM 110202
MTRGUM
SPECI PGUM 110201Z 08015G25KT 2 1/2SM +RA BR FEW016 BKN035 OVC070
26/23 A2994 RMK AO2 P0004 $





000
SAGM31 PGUM 110155
MTRGUM
METAR PGUM 110154Z 09019G25KT 10SM -RA FEW024 BKN036 OVC070 27/23
A2994 RMK AO2 RAB31 SLP132 P0000 T02720233 $





000
SAGM31 PGUM 110155
MTRGUM
METAR PGUM 110154Z 09019G25KT 10SM -RA FEW024 BKN036 OVC070 27/23
A2994 RMK AO2 RAB31 SLP132 P0000 T02720233 $




000
SAGM31 PGUM 110055
MTRGUM
METAR PGUM 110054Z 05019KT 10SM FEW028 SCT045 BKN070 29/21 A2996 RMK
AO2 PK WND 05028/0003 SLP136 T02890211 $





000
SAGM31 PGUM 110055
MTRGUM
METAR PGUM 110054Z 05019KT 10SM FEW028 SCT045 BKN070 29/21 A2996 RMK
AO2 PK WND 05028/0003 SLP136 T02890211 $




000
SAGM31 PGUM 110055
MTRGUM
METAR PGUM 110054Z 05019KT 10SM FEW028 SCT045 BKN070 29/21 A2996 RMK
AO2 PK WND 05028/0003 SLP136 T02890211 $





000
SAGM31 PGUM 102355
MTRGUM
METAR PGUM 102354Z 06018G25KT 10SM SCT027 BKN041 BKN065 29/21 A2997
RMK AO2 PK WND 07026/2344 SLP140 T02890211 10289 20239 51013 $




000
SAGM31 PGUM 102355
MTRGUM
METAR PGUM 102354Z 06018G25KT 10SM SCT027 BKN041 BKN065 29/21 A2997
RMK AO2 PK WND 07026/2344 SLP140 T02890211 10289 20239 51013 $





000
SAGM31 PGUM 102254
MTRGUM
METAR PGUM 102254Z 05014KT 10SM FEW024 SCT070 28/22 A2996 RMK AO2
SLP138 T02780217 $





000
SAGM31 PGUM 102155
MTRGUM
METAR PGUM 102154Z 05009KT 10SM FEW029 26/22 A2995 RMK AO2 SLP135
T02610222 $





000
SAGM31 PGUM 102155
MTRGUM
METAR PGUM 102154Z 05009KT 10SM FEW029 26/22 A2995 RMK AO2 SLP135
T02610222 $





000
SAGM31 PGUM 102155
MTRGUM
METAR PGUM 102154Z 05009KT 10SM FEW029 26/22 A2995 RMK AO2 SLP135
T02610222 $




000
SAGM31 PGUM 102055
MTRGUM
METAR PGUM 102054Z 05008KT 10SM BKN075 25/22 A2993 RMK AO2 SLP128
T02500217 53010 $





000
SAGM31 PGUM 101954
MTRGUM
METAR PGUM 101954Z 06009KT 10SM SCT075 25/22 A2992 RMK AO2 SLP125
T02500217 $





    US Dept of Commerce
    National Oceanic and Atmospheric Administration
    National Weather Service
    1325 East West Highway
    Silver Spring, MD 20910
    Page Author: NWS Internet Services Team
Disclaimer
Information Quality
Credits
Glossary
Privacy Policy
Freedom of Information Act (FOIA)
About Us
Career Opportunities